Location: Ida Center
(41.8662°N, 83.5713°W)
Time: 07:15:47
(UTC+00:00)

Cosmos 1869 - Pass Details

Date: 17 November 2019
Orbit: 529 x 554 km, 82.5° (Epoch: 15 December)

Event Time Altitude Azimuth Distance (km) Brightness Sun altitude
Rises 22:51:08 0° 184° (S) 2,684 7.2 -7.6°
Reaches altitude 10° 22:53:16 10° 183° (S) 1,793 6.2 -8.0°
Maximum altitude 22:57:13 81° 97° (E) 549 3.2 -8.7°
Drops below altitude 10° 23:01:09 10° 10° (N) 1,795 5.7 -9.4°
Sets 23:03:18 0° 10° (N) 2,687 6.6 -9.7°
